www.pogodaiklimat.ru

Погода и климат >> Архив погоды >> Португалия >> Синиш


ПОГОДА в Синише

  • Прогноз погоды в Синише
  • Монитор погоды в Синише

АРХИВ ПОГОДЫ в Синише

Время (UTC), дата Ветер
(напр.,м/с)
 
Видим.   Явления Облачность Т
(С)
Тd
(С)
f
(%)
Тe
(С)
Тes
(С)
Комфортность P
(гПа)
Po
(гПа)
Тmin
(С)
Tmax
(С)
R
(мм)
R24
(мм)
S
(см)
19 18.06 Ю 4-7
{9}
н/о н/о +18.8 +17.0 89 +20 +20 1016.3 1004.7
20 18.06 Ю 4-7
{8}
н/о н/о +18.2 +17.1 93 +18 +18 1016.3 1004.7
21 18.06 Ю 3-6
{8}
н/о н/о +18.1 +16.9 93 +18 +18 1016.6 1004.9
22 18.06 Ю 4-6
{7}
н/о н/о +17.8 +16.8 94 +18 +18 1017.1 1005.4
23 18.06 Ю 5 н/о н/о +17.8 +17.2 96 +17 +17 1017.0 1005.3 0.2
00 19.06 Ю 4-7
{7}
н/о н/о +17.3 +16.9 97 +17 +17 1016.7 1005.0 0.2
01 19.06 Ю 4-6
{7}
н/о н/о +17.1 +16.8 98 +17 +17 1016.4 1004.7
02 19.06 Ю 3-5
{6}
н/о н/о +17.1 +17.1 100 +17 +17 1016.2 1004.5
03 19.06 ЮЗ 3
{6}
н/о н/о +17.4 +17.3 99 +17 +17 1016.0 1004.3
04 19.06 Ю 3
{5}
н/о н/о +17.2 +17.1 99 +17 +17 1016.0 1004.3
05 19.06 Ю 3
{5}
н/о н/о +16.6 +16.6 100 +16 +16 1016.0 1004.2
06 19.06 Ю 4-6
{6}
н/о н/о +17.2 +17.2 100 +17 +17 1016.3 1004.6 +16.6 0.2
07 19.06 ЮЗ 2
{6}
н/о н/о +16.6 +16.5 99 +17 +17 1016.8 1005.1 0.1
08 19.06 Ю 3
{5}
н/о н/о +17.5 +16.7 95 +17 +17 1017.2 1005.5
09 19.06 Ю 3
{5}
3000 м дымка 10/10 60 м
[St]
+17.9 +17.2 96 +18 +18 1017.4 1005.7
10 19.06 Ю 2
{6}
12 км дождь {морось} 10/10 60 м
[Cu Sc]
+18.3 +16.2 88 +19 +19 1017.8 1006.1 0.0
11 19.06 Ю 2
{5}
30 км 9/9 500 м
[Cu Sc]
+20.6 +15.0 70 +24 +26 комфорт 1017.9 1006.4
12 19.06 ЮЗ 4
{6}
40 км {дождь, морось} 9/9 450 м
[Cu Sc]
+20.5 +15.7 74 +24 +25 комфорт 1018.0 1006.4 0.1
13 19.06 ЮЗ 4
{6}
40 км 4/4 500 м
[Cu Sc]
+21.5 +16.2 72 +25 +25 комфорт 1017.9 1006.3
14 19.06 ЮЗ 3
{7}
40 км 4/4 500 м
[Cu Sc]
+21.7 +15.7 69 +25 +35 комфорт 1017.6 1006.0
15 19.06 ЮЗ 4
{6}
н/о н/о +21.7 +17.2 76 +26 +26 душно 1017.4 1005.9
16 19.06 З 5 н/о н/о +22.0 +16.9 73 +26 +26 душно 1017.2 1005.6
17 19.06 З 4
{7}
н/о н/о +21.9 +15.2 66 +25 +25 комфорт 1016.9 1005.4
18 19.06 З 5 н/о н/о +19.9 +16.8 82 +22 +22 комфорт 1017.0 1005.4 +22.2 0.1
19 19.06 З 4
{7}
н/о н/о +18.8 +17.2 90 +20 +20 1017.1 1005.4
20 19.06 З 3
{6}
н/о н/о +18.0 +16.5 91 +18 +18 1017.2 1005.5
21 19.06 СЗ 4
{6}
н/о н/о +17.0 +16.0 94 +17 +17 1017.5 1005.8
22 19.06 СЗ 3
{5}
н/о н/о +16.4 +15.4 94 +16 +16 1018.1 1006.3
23 19.06 СЗ 3
{6}
н/о н/о +16.2 +15.2 94 +16 +16 1017.9 1006.2
00 20.06 СЗ 4 н/о н/о +15.9 +14.9 94 +15 +15 1017.7 1005.9
01 20.06 СЗ 4
{6}
н/о н/о +15.9 +15.3 96 +15 +15 1017.4 1005.6
02 20.06 С 3-6
{6}
н/о н/о +15.3 +14.7 96 +15 +15 1017.2 1005.4
03 20.06 С 2
{5}
н/о н/о +15.1 +14.6 97 +15 +15 1017.1 1005.3
04 20.06 С 2 н/о н/о +14.4 +13.7 96 +14 +14 1017.2 1005.4
05 20.06 С 2 н/о н/о +14.6 +14.1 97 +14 +14 1017.2 1005.3
06 20.06 СЗ 1 н/о н/о +15.6 +14.8 95 +16 +16 1017.3 1005.5 +14.4
07 20.06 СЗ 1 н/о н/о +16.7 +15.0 90 +18 +18 1017.6 1005.8
08 20.06 СЗ 2 н/о н/о +17.4 +14.6 84 +18 +18 1017.6 1005.9
09 20.06 СЗ 2
{5}
н/о н/о +18.4 +13.3 72 +19 +19 1017.8 1006.1
10 20.06 СЗ 4 н/о н/о +19.7 +12.5 63 +21 +21 комфорт 1017.9 1006.2
11 20.06 СЗ 4-7
{7}
н/о н/о +20.8 +12.5 59 +23 +23 комфорт 1018.1 1006.5
12 20.06 СЗ 6-8
{9}
н/о н/о +20.3 +15.8 75 +23 +23 комфорт 1018.4 1006.8
13 20.06 СЗ 7
{11}
н/о н/о +20.8 +13.4 63 +23 +23 комфорт 1018.2 1006.6
14 20.06 СЗ 8
{12}
н/о н/о +20.5 +14.2 67 +23 +23 комфорт 1018.1 1006.5
15 20.06 СЗ 8
{12}
н/о н/о +20.0 +13.9 68 +21 +21 комфорт 1017.7 1006.1
16 20.06 СЗ 8 н/о н/о +20.2 +14.0 68 +22 +22 комфорт 1017.5 1005.9
17 20.06 СЗ 9 н/о н/о +18.4 +13.5 73 +18 +18 1017.2 1005.6
18 20.06 СЗ 10 н/о н/о +18.5 +14.4 77 +18 +18 1017.2 1005.5 +21.8
19 20.06 СЗ 9 н/о н/о +17.5 +14.3 81 +16 +16 1017.5 1005.8
20 20.06 СЗ 9 н/о н/о +16.5 +14.0 85 +15 +15 1017.7 1006.0
21 20.06 СЗ 9
{14}
н/о н/о +16.3 +13.7 85 +15 +15 1018.4 1006.6
22 20.06 СЗ 8
{13}
н/о н/о +15.9 +13.6 86 +14 +14 1019.1 1007.4
23 20.06 СЗ 7
{11}
н/о н/о +15.5 +13.5 88 +14 +14 1019.3 1007.5
00 21.06 С 5-7
{11}
н/о н/о +15.1 +13.1 88 +14 +14 1019.2 1007.3
01 21.06 С 4-7
{8}
н/о н/о +14.9 +12.9 88 +14 +14 1019.1 1007.2
02 21.06 С 5-8
{8}
н/о н/о +14.7 +12.7 88 +13 +13 1018.7 1006.9
03 21.06 С 4-7
{7}
н/о н/о +14.4 +12.5 88 +13 +13 1018.6 1006.8
04 21.06 СЗ 5
{8}
н/о н/о +14.5 +12.7 89 +13 +13 1018.6 1006.8
05 21.06 СЗ 6 н/о н/о +14.3 +12.8 91 +12 +12 1018.8 1007.0
06 21.06 СЗ 6
{10}
н/о н/о +14.9 +12.6 86 +13 +13 1019.0 1007.2 +14.1
07 21.06 С 6-10
{10}
н/о н/о +16.0 +12.3 79 +15 +15 1019.1 1007.3
08 21.06 С 6-9
{10}
н/о н/о +16.9 +11.9 72 +16 +16 1019.3 1007.6
09 21.06 С 7-11
{11}
н/о н/о +17.7 +12.4 71 +17 +17 1019.1 1007.4
10 21.06 СЗ 6-10
{11}
н/о н/о +18.6 +12.4 67 +19 +19 1019.2 1007.6
11 21.06 СЗ 6-9
{10}
н/о н/о +19.5 +13.0 66 +21 +21 комфорт 1019.3 1007.6
12 21.06 СЗ 8 н/о н/о +19.9 +13.7 67 +21 +21 комфорт 1018.9 1007.3
13 21.06 СЗ 9 н/о н/о +19.7 +14.1 70 +21 +21 комфорт 1018.6 1007.0
14 21.06 СЗ 8
{13}
н/о н/о +20.6 +13.9 65 +23 +23 комфорт 1018.0 1006.5
15 21.06 СЗ 8
{13}
н/о н/о +21.0 +14.5 66 +24 +24 комфорт 1017.7 1006.1
16 21.06 СЗ 9 н/о н/о +19.6 +13.7 69 +21 +21 комфорт 1017.5 1005.9
17 21.06 СЗ 9 н/о н/о +19.3 +14.1 72 +20 +20 1017.0 1005.3
18 21.06 СЗ 8
{12}
н/о н/о +18.2 +14.4 78 +18 +18 1017.3 1005.7 +21.0
19 21.06 СЗ 7
{11}
н/о н/о +17.1 +13.9 81 +16 +16 1017.5 1005.8
20 21.06 С 4-7
{10}
н/о н/о +16.1 +13.4 84 +15 +15 1017.3 1005.5
21 21.06 С 4-6
{8}
н/о н/о +15.4 +13.1 86 +14 +14 1017.3 1005.5
22 21.06 С 4-6
{7}
н/о н/о +15.3 +12.9 86 +14 +14 1017.7 1005.9
23 21.06 С 4-6
{7}
н/о н/о +14.9 +13.3 90 +14 +14 1017.7 1005.9
00 22.06 СЗ 4
{6}
н/о н/о +14.5 +13.0 91 +13 +13 1017.2 1005.4
01 22.06 С 4-6
{6}
н/о н/о +14.3 +13.1 92 +13 +13 1017.0 1005.2
02 22.06 С 3
{6}
н/о н/о +13.4 +12.1 92 +12 +12 1016.5 1004.7
03 22.06 С 2 н/о н/о +13.0 +12.4 96 +12 +12 1016.2 1004.4
04 22.06 С 1 н/о н/о +13.0 +12.5 97 +13 +13 1016.0 1004.1
05 22.06 С 1 н/о н/о +12.5 +12.0 97 +12 +12 1016.5 1004.6
06 22.06 З 1 н/о н/о +13.9 +13.1 95 +14 +14 1016.4 1004.6 +12.0
07 22.06 СЗ 1 н/о н/о +16.0 +14.2 89 +17 +17 1016.5 1004.7
08 22.06 З 2 н/о н/о +17.1 +13.0 77 +17 +17 1016.6 1004.8
09 22.06 СЗ 3
{5}
н/о н/о +18.9 +13.5 71 +20 +20 1016.3 1004.7
10 22.06 С 2
{5}
н/о н/о +20.7 +8.8 46 +23 +23 комфорт 1016.0 1004.5
11 22.06 ЮЗ 3-5
{5}
н/о н/о +21.6 +11.9 54 +24 +24 комфорт 1016.0 1004.5
12 22.06 З 3
{5}
н/о н/о +21.6 +12.6 57 +24 +24 комфорт 1015.8 1004.3
13 22.06 СЗ 3-5
{5}
н/о н/о +23.4 +9.3 41 +25 +25 комфорт 1015.5 1004.1
14 22.06 СЗ 4-6
{6}
н/о н/о +22.1 +8.9 43 +23 +23 комфорт 1015.3 1003.8
15 22.06 СЗ 5 н/о н/о +22.5 +10.2 46 +24 +24 комфорт 1015.0 1003.5
16 22.06 СЗ 4
{8}
н/о н/о +21.6 +10.0 48 +23 +23 комфорт 1014.8 1003.3
17 22.06 СЗ 6 н/о н/о +20.3 +12.9 62 +22 +22 комфорт 1014.6 1003.1
18 22.06 СЗ 5 н/о н/о +20.1 +12.3 61 +22 +22 комфорт 1014.5 1002.9 +23.4
19 22.06 СЗ 4-7
{7}
н/о н/о +18.6 +13.5 72 +19 +19 1014.7 1003.1
20 22.06 З 3
{6}
н/о н/о +17.5 +14.4 82 +18 +18 1014.7 1003.1
21 22.06 З 2 н/о н/о +17.0 +15.2 89 +17 +17 1015.0 1003.3
22 22.06 Ю 2 н/о н/о +15.8 +14.6 93 +16 +16 1015.0 1003.3
23 22.06 Ю 3 н/о н/о +15.7 +14.7 94 +15 +15 1014.8 1003.1
00 23.06 Ю 2 н/о н/о +15.8 +14.6 93 +16 +16 1014.6 1002.8
01 23.06 Ю 1 н/о н/о +16.4 +15.2 93 +17 +17 1014.4 1002.6
02 23.06 Ю 3 н/о н/о +16.2 +15.0 93 +16 +16 1013.9 1002.2
03 23.06 Ю 3
{5}
н/о н/о +16.7 +15.8 94 +16 +16 1013.8 1002.1
04 23.06 Ю 3 н/о н/о +16.6 +16.0 96 +16 +16 1014.1 1002.4
05 23.06 Ю 3 н/о н/о +16.5 +16.2 98 +16 +16 1014.1 1002.4
06 23.06 Ю 2 н/о н/о +16.7 +16.2 97 +17 +17 1014.0 1002.4 +15.4
07 23.06 Ю 2 н/о н/о +17.0 +16.7 98 +17 +17 1014.3 1002.6
08 23.06 Ю 3
{5}
н/о н/о +18.6 +17.2 92 +20 +20 1014.3 1002.7
09 23.06 Ю 4 н/о н/о +20.7 +17.5 82 +25 +25 комфорт 1014.3 1002.8
10 23.06 Ю 4
{6}
н/о н/о +22.8 +17.5 72 +28 +28 душно 1014.2 1002.7
11 23.06 Ю 4
{6}
н/о н/о +22.3 +17.1 72 +27 +27 душно 1014.3 1002.8
12 23.06 ЮЗ 4-7
{7}
н/о н/о +22.0 +17.0 73 +26 +26 душно 1014.2 1002.7
13 23.06 ЮЗ 4
{6}
н/о н/о +23.0 +17.2 70 +28 +28 душно 1014.1 1002.6
14 23.06 ЮЗ 4-6
{7}
н/о н/о +21.0 +17.2 79 +25 +25 комфорт 1014.2 1002.6
15 23.06 ЮЗ 4
{7}
н/о н/о +22.3 +17.9 76 +27 +27 душно 1013.7 1002.3
16 23.06 ЮЗ 5 н/о н/о +21.2 +18.1 82 +25 +25 комфорт 1013.6 1002.0
17 23.06 ЮЗ 4-6
{7}
н/о н/о +20.5 +18.2 87 +24 +24 комфорт 1013.4 1001.9
18 23.06 З 3
{6}
н/о н/о +19.9 +18.3 90 +23 +23 комфорт 1013.5 1002.0 +23.7
19 23.06 ЮЗ 3
{5}
н/о н/о +19.0 +18.5 97 +21 +21 комфорт 1013.7 1002.1
20 23.06 ЮЗ 2 н/о н/о +18.7 +18.6 99 +20 +20 1013.8 1002.2
21 23.06 ЮЗ 1 н/о н/о +18.4 +18.1 98 +20 +20 1014.3 1002.7
22 23.06 СЗ 3 н/о н/о +18.1 +17.0 93 +18 +18 1014.7 1003.1
23 23.06 С 2 н/о н/о +18.2 +16.3 89 +19 +19 1014.8 1003.1
00 24.06 С 2 н/о н/о +18.5 +15.7 84 +20 +20 1014.5 1002.9
01 24.06 С 1 н/о н/о +18.3 +15.3 83 +20 +20 1014.2 1002.6
02 24.06 СЗ 2 н/о н/о +17.9 +15.7 87 +18 +18 1013.9 1002.2
03 24.06 СЗ 3
{5}
н/о н/о +17.7 +16.0 90 +18 +18 1013.8 1002.1
04 24.06 СЗ 3
{5}
н/о н/о +17.4 +16.2 93 +17 +17 1013.9 1002.2
05 24.06 С 3
{5}
н/о н/о +16.9 +15.1 89 +17 +17 1013.7 1002.0
06 24.06 В 2 н/о н/о +17.4 +15.7 90 +18 +18 1014.0 1002.3 +16.7
07 24.06 СВ 2 н/о н/о +18.6 +15.6 83 +20 +20 1014.2 1002.6
08 24.06 СВ 2 н/о н/о +20.5 +14.7 69 +24 +24 комфорт 1014.4 1002.8
09 24.06 СЗ 5 30 км 9/5 500 м
[Cu Sc Ac trans]
+20.2 +15.6 75 +23 +24 комфорт 1014.8 1003.2
10 24.06 СЗ 6
{10}
30 км 9/5 500 м
[Cu Sc Ac trans]
+19.8 +15.2 75 +22 +23 комфорт 1015.1 1003.5
11 24.06 С 5-9
{10}
30 км 8/6 500 м
[Cu Sc Ac trans Ci fib]
+21.3 +14.6 66 +24 +27 комфорт 1015.5 1003.9
12 24.06 С 4
{9}
30 км 9/4 500 м
[Cu Sc Ac trans Ci fib]
+24.1 +10.1 41 +25 +30 комфорт 1015.1 1003.7
13 24.06 СЗ 7 50 км 9/9 500 м
[Cu Sc]
+22.4 +13.9 59 +26 +26 жарко 1015.3 1003.8
14 24.06 -10
{13}
70 км н/о +21.3 +10.8 51 +23 +24 комфорт 1015.3 1003.7
15 24.06 С 7-11
{11}
н/о н/о +21.5 +11.0 51 +23 +23 комфорт 1015.1 1003.5
16 24.06 С 7-10
{11}
н/о н/о +23.1 +8.9 40 +24 +24 комфорт 1015.2 1003.8
17 24.06 С 5-11
{11}
н/о н/о +23.7 +8.0 37 +24 +24 комфорт 1015.0 1003.5
18 24.06 СЗ 5
{10}
н/о н/о +21.5 +10.3 49 +23 +23 комфорт 1015.1 1003.5 +25.2
19 24.06 СЗ 5 н/о н/о +18.4 +13.4 73 +19 +19 1015.5 1003.9
20 24.06 СЗ 5 н/о н/о +18.0 +14.2 78 +18 +18 1015.7 1004.0
21 24.06 СЗ 3
{6}
н/о н/о +17.7 +14.9 84 +18 +18 1016.3 1004.6
22 24.06 СЗ 4
{6}
н/о н/о +17.6 +15.4 87 +17 +17 1016.5 1004.8
23 24.06 СЗ 4
{6}
н/о н/о +17.6 +15.8 89 +17 +17 1016.5 1004.8
00 25.06 СЗ 5 н/о н/о +17.5 +16.1 91 +17 +17 1016.5 1004.9
01 25.06 С 3
{6}
н/о н/о +17.3 +15.7 90 +17 +17 1016.1 1004.4
02 25.06 СВ 2
{5}
н/о н/о +16.7 +14.2 85 +17 +17 1015.6 1003.8
03 25.06 С 2 н/о н/о +16.9 +14.3 85 +17 +17 1015.4 1003.7
04 25.06 СЗ 1 н/о н/о +17.1 +14.7 86 +18 +18 1015.4 1003.7
05 25.06 СЗ 2 н/о н/о +16.7 +14.6 87 +17 +17 1015.6 1003.9
06 25.06 С 2 н/о н/о +16.7 +14.5 87 +17 +17 1015.8 1004.1 +16.4
07 25.06 С 2 н/о н/о +19.3 +14.2 72 +21 +21 комфорт 1015.9 1004.3
08 25.06 С 2 н/о н/о +19.9 +14.8 72 +23 +23 комфорт 1016.3 1004.7
09 25.06 СЗ 3
{5}
40 км 8/8 900 м
[Sc]
+21.8 +14.9 65 +25 +27 комфорт 1016.1 1004.6
10 25.06 СЗ 3
{5}
40 км 9/9 500 м
[Cu Sc]
+21.2 +14.6 66 +24 +25 комфорт 1016.1 1004.5
11 25.06 СЗ 4
{6}
50 км 9/9 500 м
[Cu Sc]
+22.0 +15.1 65 +26 +27 душно 1016.0 1004.5
12 25.06 СЗ 3-5
{6}
50 км 9/9 500 м
[Cu Sc]
+23.2 +14.2 57 +27 +29 душно 1015.8 1004.3
13 25.06 СЗ 3
{5}
н/о н/о +24.8 +14.3 52 +27 +27 жарко 1015.6 1004.2
14 25.06 СЗ 3-6
{6}
50 км 3/3 500 м
[Cu Sc]
+24.7 +13.9 51 +27 +38 жарко 1015.2 1003.8
15 25.06 СЗ 4-5
{6}
н/о н/о +23.4 +14.0 56 +27 +27 душно 1015.1 1003.6
16 25.06 СЗ 3
{6}
н/о н/о +22.9 +13.9 57 +26 +26 жарко 1015.1 1003.6
17 25.06 СЗ 3
{6}
н/о н/о +22.9 +14.2 58 +26 +26 жарко 1015.1 1003.6

 

Местоположение метеостанции Синиш (Португалия): широта 37.95 долгота -8.87 высота над уровнем моря 103 м.

В архиве по умолчанию представлена погода в Синише за последнюю неделю. Архивные данные за месяц целиком и за предыдущие месяцы, начиная с января 2011 года, Вы можете получить, выбрав интересующий диапазон дат из раскрывающегося списка и нажав кнопку "Ввод!".


*Определитесь, кто Вы:
робот инопланетянин человек

Внимание! Время в таблицах - всемирное. Для получения местного времени необходимо прибавить поправку, которая равна 0 ч.

Смотрите также архив погоды в соседних городах и на ближайших метеорологических станциях:

Погода в Бежа аэропорту (Португалия) (84 км)
Погода в Монтижу (Португалия) (85 км)
Погода в Беже (Португалия) (88 км)
Погода в Лиссабоне (Португалия) (89 км)
Погода в Лиссабон аэропорту (Португалия) (94 км)
Погода в Сагресе (Португалия) (106 км)
Погода в Эворе (Португалия) (107 км)
Погода в Фару (Португалия) (130 км)
Погода в Айямонте - Исла Канель (Испания) (155 км)
Погода в Кабо Карвоейру (Португалия) (162 км)

Пояснения к столбцам:

Ветер - указаны скорость ветра в м/с - средняя за 10 мин, порывы в срок и между сроками (в фигурных скобках) и направление, откуда дует ветер: С - северный, СВ - северо-восточный, В - восточный, ЮВ - юго-восточный, Ю - южный, ЮЗ - юго-западный, З - западный, СЗ - северо-западный.
Видимость - горизонтальная дальность видимости в метрах или километрах. При видимости от 1 до 10 км при отсутствии осадков обычно наблюдается дымка, при ухудшении видимости до 1 км и менее - туман. В сухую погоду видимость может ухудшаться дымом, пылью или мглою.
Явления - указаны атмосферные явления, наблюдавшиеся в срок или в последний час перед сроком; фигурными скобками обозначены явления, наблюдавшиеся между сроками (за 1-3 часа до срока); квадратными скобками обозначены град или гололедные отложения с указанием их диаметра в мм.
Облачность - указаны через наклонную черту общая и нижняя облачность в баллах и высота нижней границы облаков в метрах; квадратными скобками обозначены формы облаков: Ci - перистые, Cs - перисто-слоистые, Cc - перисто-кучевые, Ac - высококучевые, As - высокослоистые, Sc - слоисто-кучевые, Ns - слоисто-дождевые, Cu - кучевые, Cb - кучево-дождевые. Подробнее классификацию облаков см. в Атласе облаков (PDF).
T - Температура воздуха - температура, измеренная на высоте 2 м над землей.
Td - Температура точки росы - температура, при понижении до которой содержащийся в воздухе водяной пар достигнет насыщения.
f - Относительная влажность воздуха - влажноcть воздуха, измеренная на высоте 2 м над землей.
Te - Эффективная температура - температура, которую ощущает одетый по сезону человек в тени. Характеристика душности погоды. При расчете учитывается влияние влажности воздуха и скорости ветра на теплоощущения человека.
Tes - Эффективная температура на солнце - температура, которую ощущает человек, с поправкой на солнечный нагрев. Характеристика знойности погоды. Зависит от высоты солнца над горизонтом, облачности и скорости ветра. Ночью, в пасмурную погоду, а также при ветре 12 м/с и более поправка равна нулю.
P - Атмосферное давление - приведенное к уровню моря атмосферное давление.
Po - Атмосферное давление - измеренное на уровне метеостанции атмосферное давление.
Tmin - Минимальная температура - минимум температуры воздуха на высоте 2 м над землей.
Tmax - Максимальная температура - максимум температуры воздуха на высоте 2 м над землей.
R - Количество осадков - Количество выпавших осадков за период времени, мм. При наведении курсора мыши на число - период времени, за который выпало указанное количество осадков.
R24 - Количество осадков - Количество выпавших осадков за 24 часа, мм.
S - Снежный покров - Высота снежного покрова, см. При наведении курсора мыши на число - состояние снежного покрова и степень покрытия местности в баллах.